Regional Weather Roundup
Issued by NWS San Angelo, TX

Home | Current Version | Previous Version | Text Only | Print | Product List | Glossary On
Versions: 1 2 3 4 5 6 7 8 9 10 11 12 13 14 15 16 17 18 19 20 21 22 23 24 25 26 27 28 29 30 31 32 33 34 35 36 37 38 39 40 41 42 43 44 45 46 47 48 49 50
000
ASUS44 KSJT 270810
RWRSJT
WEST CENTRAL TEXAS REGIONAL WEATHER ROUNDUP
NATIONAL WEATHER SERVICE SAN ANGELO TX
300 AM CDT TUE JUN 27 2017

NOTE: "FAIR" INDICATES FEW OR NO CLOUDS BELOW 12,000 FEET WITH NO
SIGNIFICANT WEATHER AND/OR OBSTRUCTIONS TO VISIBILITY.

TXZ049-054-064>066-071>073-076>078-098-099-113-114-127-128-139-140-
154-155-168>170-270900
...LOCATIONS ACROSS WEST CENTRAL TEXAS...

CITY           SKY/WX    TMP DP  RH WIND       PRES   REMARKS
SAN ANGELO     CLEAR     67  64  90 NE6       30.09S
ABILENE        CLEAR     69  67  93 SE5       30.07F
DYESS AFB      NOT AVBL
JUNCTION       CLOUDY    71  67  87 CALM      30.06F
SWEETWATER     CLEAR     68  68 100 S9        30.11F
BROWNWOOD      PTCLDY    70  70 100 SE3       30.07S
COLEMAN        SUNNY     67  65  95 W3        30.08F
SONORA         PTCLDY    72  66  83 CALM      30.13S
OZONA          FAIR      72  64  78 S7        30.12S
BRADY          NOT AVBL
$$

TEXAS PANHANDLE/OKLAHOMA PANHANDLE

CITY           SKY/WX    TMP DP  RH WIND       PRES   REMARKS
AMARILLO       PTCLDY    66  63  90 S10       30.14R
BORGER         PTCLDY    71  61  70 SW6       30.10S
CANADIAN       PTCLDY    73  67  84 SW9       30.05S
DALHART        MOCLDY    72  53  51 NW8       30.13R
DUMAS          CLOUDY    69  56  63 SW14      30.12F
GUYMON         NOT AVBL
HEREFORD       MOSUNNY   66  63  90 W7        30.17R
PAMPA          SUNNY     68  63  84 S8        30.11F
PERRYTON       MOCLDY    73  64  73 S13       30.05F
$$

SOUTHERN PANHANDLE/SOUTH PLAINS/ROLLING PLAINS

CITY           SKY/WX    TMP DP  RH WIND       PRES   REMARKS
LUBBOCK        PTCLDY    68  64  87 S8        30.13F
SNYDER         CLEAR     66  65  97 S5        30.10F
CHILDRESS      CLEAR     72  66  81 S8        30.06F
SEMINOLE       SUNNY     65  64  94 S3        30.15F
$$

PERMIAN BASIN

CITY           SKY/WX    TMP DP  RH WIND       PRES   REMARKS
MIDLAND        CLEAR     69  65  86 SE5       30.11S
ODESSA         CLEAR     69  66  90 SE3       30.13S
WINK           CLOUDY    73  65  75 E3        30.09S
$$

FAR WEST/SOUTHWEST MOUNTAINS/TRANS PECOS

CITY           SKY/WX    TMP DP  RH WIND       PRES   REMARKS
ALPINE         MOSUNNY   69  59  69 SE8       30.23R
DRYDEN           N/A     75  67  76 E9        30.06F
EL PASO        MOCLDY    74  56  53 VRB3      30.12F
FORT STOCKTON  CLEAR     72  64  76 SE9       30.10S
GUADALUPE PASS NOT AVBL
MARFA          CLEAR     61  55  81 NW8       30.21S
PECOS          SUNNY     74  61  63 E6        30.09S
$$

DALLAS/FORT WORTH METROPLEX

CITY           SKY/WX    TMP DP  RH WIND       PRES   REMARKS
DFW AIRPORT    PTCLDY    77  69  76 SE7       30.01F
FTW MEACHAM    MOCLDY    79  71  76 E7        30.02F
DAL-EXECUTIVE  PTCLDY    76  70  82 SE5       30.02F
GRAND PRAIRIE  MOCLDY    77  68  74 E5        30.04F
ADDISON        CLEAR     77  67  72 E6        30.04F
MESQUITE       PTSUNNY   74  68  80 CALM      30.02F
LANCASTER      MOSUNNY   74  70  88 SE3       30.03F
$$

NORTH CENTRAL TEXAS

CITY           SKY/WX    TMP DP  RH WIND       PRES   REMARKS
SHRMAN/DENISON SUNNY     69  65  87 NE3       30.05S
GAINESVILLE    CLEAR     70  65  85 CALM      30.06F
BRIDGEPORT     MOSUNNY   72  72 100 CALM      30.05F
DENTON         PTCLDY    74  70  87 SE3       30.03F
WAXAHACHIE     SUNNY     74  73  98 CALM      30.03F
GRANBURY       SUNNY     77  72  84 SE3       30.05S
$$

WESTERN NORTH TEXAS

CITY           SKY/WX    TMP DP  RH WIND       PRES   REMARKS
WICHITA FALLS  CLEAR     70  67  90 SE5       30.04F
VERNON           N/A     74  67  80 S6        30.06S
BRECKENRIDGE   SUNNY     73  70  91 SE5       30.05F
COMANCHE       CLEAR     71  71 100 S3        30.06F
$$

CENTRAL AND SOUTH CENTRAL TEXAS

CITY           SKY/WX    TMP DP  RH WIND       PRES   REMARKS
AUSTIN/BERGSTM LGT RAIN  76  76 100 CALM      30.01F
WACO           PTCLDY    75  72  90 CALM      30.02F
HILLSBORO      SUNNY     75  73  91 S5        30.03F
TEMPLE         MOCLDY    73  71  93 CALM      30.04F
KILLEEN-GRAY   NOT AVBL
FORT HOOD      CLOUDY    71  70  96 CALM      30.02S
GEORGETOWN     CLOUDY    75  70  83 NW5       30.04S
LAGO VISTA     PTSUNNY   73  72  96 N5        30.06R FOG
SAN MARCOS     CLOUDY    73  73 100 NE5       30.03R
NEW BRAUNFELS  LGT RAIN  75  73  93 CALM      30.00F
RANDOLPH AFB   LGT RAIN  74  74 100 CALM      30.01F
SAN ANTONIO    LGT RAIN  75  72  90 E5        30.01F
STINSON        LGT RAIN  76  73  91 E5        29.99F
PLEASANTON     NOT AVBL
LA GRANGE      CLOUDY    76  74  96 CALM      29.98F
GIDDINGS       CLOUDY    73  71  92 CALM      30.02F
$$

EAST TEXAS

CITY           SKY/WX    TMP DP  RH WIND       PRES   REMARKS
PARIS            N/A     69  64  84 E6        30.05F
CLARKSVILLE    NOT AVBL
TYLER          CLOUDY    75  72  90 SE5       30.04F
LONGVIEW       CLOUDY    72  70  93 CALM      30.04S
PALESTINE      CLOUDY    75  72  91 CALM      30.05S
NACOGDOCHES    CLOUDY    73  70  88 MISG      30.02F
$$

TEXAS HILL COUNTRY AND EDWARDS PLATEAU

CITY           SKY/WX    TMP DP  RH WIND       PRES   REMARKS
LLANO          PTSUNNY   73  72  94 CALM      30.07F
HORSESHOE BAY  CLOUDY    73  72  95 CALM      30.05S FOG
KERRVILLE      MOCLDY    69  68  96 CALM      30.06S
FREDERICKSBRG  CLOUDY    69  67  92 CALM      30.06R
ROCKSPRINGS    MOSUNNY   70  70 100 CALM      30.11S
HONDO          LGT RAIN  75  73  93 E3        30.02S
UVALDE         CLOUDY    73  72  96 CALM      30.04S
DEL RIO        CLOUDY    74  72  93 E3        30.02F
$$

SOUTHEAST TEXAS

CITY           SKY/WX    TMP DP  RH WIND       PRES   REMARKS
COLLEGE STN    CLOUDY    73  72  96 CALM      30.02F
CALDWELL       NOT AVBL
CROCKETT       CLOUDY    73  72  94 CALM      30.06F
BRENHAM        MOCLDY    75  74  96 CALM      30.01F
HUNTSVILLE     CLOUDY    74  70  87 N3        30.03F
CONROE         MOCLDY    73  71  93 CALM      30.01F
HOUSTON BUSH   CLOUDY    74  71  91 SE3       30.00F
HOUSTON HOBBY  MOCLDY    77  73  87 CALM      29.98F THUNDER
PERLAND        CLOUDY    77  73  87 CALM      30.00F
WHARTON        MOSUNNY   73  71  93 CALM      30.00F
$$

THE UPPER TEXAS COAST

CITY           SKY/WX    TMP DP  RH WIND       PRES   REMARKS
ORANGE         CLOUDY    75  74  95 CALM      30.02F
PORT ARTHUR    CLOUDY   N/A N/A N/A MISG      29.99F
GALVESTON      TSTM      77  77 100 SE8       30.00R FOG
ANGLETON       PTCLDY    76  75  97 NE3       29.98F
BAY CITY       PTSUNNY   74  73  96 CALM      29.99S
$$

TEXAS COASTAL BEND, RIO GRANDE PLAINS DEEP SOUTH TEXAS

CITY           SKY/WX    TMP DP  RH WIND       PRES   REMARKS
VICTORIA       CLOUDY    76  73  91 NE6       29.99F
BEEVILLE       CLOUDY   N/A N/A N/A NE5       29.99S
ROCKPORT       PTCLDY    80  74  81 E10       29.95F
PORT ARANSAS   CLOUDY    81  74  80 S5        29.95F
PORT LAVACA    CLOUDY    76  76  98 CALM      29.98F
CORPUS CHRISTI CLOUDY    79  75  87 CALM      29.96F
KINGSVILLE NAS CLOUDY    77  77 100 NE3       29.95F
COTULLA        CLOUDY    77  71  82 E7        30.00F
LAREDO         CLEAR     76  73  91 NE7       29.99F
BROWNSVILLE    CLOUDY    77  76  96 SE3       29.93F
PORT ISABEL    CLOUDY    79  76  90 CALM      29.93F
HEBBRONVILLE   CLOUDY    76  73  89 CALM      30.00S
MCALLEN        CLOUDY    80  73  79 CALM      29.94F
WESLACO        MOCLDY    77  74  91 CALM      29.93F
FALFURRIAS     CLOUDY    77  74  91 N3        29.96S
EDINBURG       CLOUDY    77  73  87 CALM      29.94F
$$




USA.gov is the U.S. government's official web portal to all federal, state and local government web resources and services.